Year,Month,Day,Hour,Minute,Value (Times are PST for temperature in C)
2010,04,13,00,00,9.60
2010,04,13,00,01,9.60
2010,04,13,00,02,9.60
2010,04,13,00,03,9.60
2010,04,13,00,04,9.60
2010,04,13,00,05,9.60
2010,04,13,00,06,9.60
2010,04,13,00,07,9.60
2010,04,13,00,08,9.70
2010,04,13,00,09,9.70
2010,04,13,00,10,9.70
2010,04,13,00,11,9.70
2010,04,13,00,12,9.70
2010,04,13,00,13,9.70
2010,04,13,00,14,9.70
2010,04,13,00,15,9.70
2010,04,13,00,16,9.70
2010,04,13,00,17,9.70
2010,04,13,00,18,9.70
2010,04,13,00,19,9.70
2010,04,13,00,20,9.60
2010,04,13,00,21,9.60
2010,04,13,00,22,9.60
2010,04,13,00,23,9.60
2010,04,13,00,24,9.60
2010,04,13,00,25,9.60
2010,04,13,00,26,9.60
2010,04,13,00,27,9.60
2010,04,13,00,28,9.60
2010,04,13,00,29,9.60
2010,04,13,00,30,9.60
2010,04,13,00,31,9.60
2010,04,13,00,32,9.60
2010,04,13,00,33,9.60
2010,04,13,00,34,9.60
2010,04,13,00,35,9.60
2010,04,13,00,36,9.60
2010,04,13,00,37,9.60
2010,04,13,00,38,9.60
2010,04,13,00,39,9.60
2010,04,13,00,40,9.60
2010,04,13,00,41,9.60
2010,04,13,00,42,9.60
2010,04,13,00,43,9.60
2010,04,13,00,44,9.60
2010,04,13,00,45,9.60
2010,04,13,00,46,9.60
2010,04,13,00,47,9.60
2010,04,13,00,48,9.50
2010,04,13,00,49,9.50
2010,04,13,00,50,9.50
2010,04,13,00,51,9.50
2010,04,13,00,52,9.50
2010,04,13,00,53,9.50
2010,04,13,00,54,9.50
2010,04,13,00,55,9.50
2010,04,13,00,56,9.50
2010,04,13,00,57,9.50
2010,04,13,00,58,9.50
2010,04,13,00,59,9.50
2010,04,13,01,00,9.50
2010,04,13,01,01,9.50
2010,04,13,01,02,9.50
2010,04,13,01,03,9.50
2010,04,13,01,04,9.50
2010,04,13,01,05,9.50
2010,04,13,01,06,9.50
2010,04,13,01,07,9.50
2010,04,13,01,08,9.50
2010,04,13,01,09,9.50
2010,04,13,01,10,9.50
2010,04,13,01,11,9.50
2010,04,13,01,12,9.50
2010,04,13,01,13,9.50
2010,04,13,01,14,9.50
2010,04,13,01,15,9.50
2010,04,13,01,16,9.50
2010,04,13,01,17,9.50
2010,04,13,01,18,9.50
2010,04,13,01,19,9.50
2010,04,13,01,20,9.50
2010,04,13,01,21,9.50
2010,04,13,01,22,9.50
2010,04,13,01,23,9.50
2010,04,13,01,24,9.50
2010,04,13,01,25,9.50
2010,04,13,01,26,9.50
2010,04,13,01,27,9.50
2010,04,13,01,28,9.50
2010,04,13,01,29,9.50
2010,04,13,01,30,9.50
2010,04,13,01,31,9.50
2010,04,13,01,32,9.50
2010,04,13,01,33,9.50
2010,04,13,01,34,9.50
2010,04,13,01,35,9.50
2010,04,13,01,36,9.50
2010,04,13,01,37,9.50
2010,04,13,01,38,9.40
2010,04,13,01,39,9.40
2010,04,13,01,40,9.40
2010,04,13,01,41,9.40
2010,04,13,01,42,9.40
2010,04,13,01,43,9.40
2010,04,13,01,44,9.40
2010,04,13,01,45,9.40
2010,04,13,01,46,9.40
2010,04,13,01,47,9.30
2010,04,13,01,48,9.30
2010,04,13,01,49,9.30
2010,04,13,01,50,9.30
2010,04,13,01,51,9.30
2010,04,13,01,52,9.30
2010,04,13,01,53,9.30
2010,04,13,01,54,9.30
2010,04,13,01,55,9.30
2010,04,13,01,56,9.30
2010,04,13,01,57,9.30
2010,04,13,01,58,9.30
2010,04,13,01,59,9.20
2010,04,13,02,00,9.20
2010,04,13,02,01,9.20
2010,04,13,02,02,9.20
2010,04,13,02,03,9.20
2010,04,13,02,04,9.20
2010,04,13,02,05,9.20
2010,04,13,02,06,9.20
2010,04,13,02,07,9.20
2010,04,13,02,08,9.20
2010,04,13,02,09,9.20
2010,04,13,02,10,9.20
2010,04,13,02,11,9.20
2010,04,13,02,12,9.10
2010,04,13,02,13,9.10
2010,04,13,02,14,9.10
2010,04,13,02,15,9.10
2010,04,13,02,16,9.10
2010,04,13,02,17,9.10
2010,04,13,02,18,9.10
2010,04,13,02,19,9.10
2010,04,13,02,20,9.00
2010,04,13,02,21,9.00
2010,04,13,02,22,9.00
2010,04,13,02,23,9.00
2010,04,13,02,24,9.00
2010,04,13,02,25,9.00
2010,04,13,02,26,9.00
2010,04,13,02,27,9.00
2010,04,13,02,28,9.00
2010,04,13,02,29,9.00
2010,04,13,02,30,9.00
2010,04,13,02,31,9.00
2010,04,13,02,32,9.00
2010,04,13,02,33,9.00
2010,04,13,02,34,9.10
2010,04,13,02,35,9.10
2010,04,13,02,36,9.10
2010,04,13,02,37,9.10
2010,04,13,02,38,9.10
2010,04,13,02,39,9.00
2010,04,13,02,40,9.00
2010,04,13,02,41,9.00
2010,04,13,02,42,9.00
2010,04,13,02,43,9.00
2010,04,13,02,44,8.90
2010,04,13,02,45,8.90
2010,04,13,02,46,8.90
2010,04,13,02,47,8.90
2010,04,13,02,48,8.80
2010,04,13,02,49,8.80
2010,04,13,02,50,8.80
2010,04,13,02,51,8.80
2010,04,13,02,52,8.80
2010,04,13,02,53,8.70
2010,04,13,02,54,8.70
2010,04,13,02,55,8.70
2010,04,13,02,56,8.70
2010,04,13,02,57,8.70
2010,04,13,02,58,8.70
2010,04,13,02,59,8.70
2010,04,13,03,00,8.70
2010,04,13,03,01,8.70
2010,04,13,03,02,8.70
2010,04,13,03,03,8.70
2010,04,13,03,04,8.70
2010,04,13,03,05,8.70
2010,04,13,03,06,8.70
2010,04,13,03,07,8.70
2010,04,13,03,08,8.70
2010,04,13,03,09,8.70
2010,04,13,03,10,8.70
2010,04,13,03,11,8.70
2010,04,13,03,12,8.70
2010,04,13,03,13,8.70
2010,04,13,03,14,8.70
2010,04,13,03,15,8.70
2010,04,13,03,16,8.70
2010,04,13,03,17,8.70
2010,04,13,03,18,8.70
2010,04,13,03,19,8.70
2010,04,13,03,20,8.70
2010,04,13,03,21,8.70
2010,04,13,03,22,8.60
2010,04,13,03,23,8.60
2010,04,13,03,24,8.60
2010,04,13,03,25,8.60
2010,04,13,03,26,8.60
2010,04,13,03,27,8.60
2010,04,13,03,28,8.60
2010,04,13,03,29,8.60
2010,04,13,03,30,8.60
2010,04,13,03,31,8.60
2010,04,13,03,32,8.60
2010,04,13,03,33,8.60
2010,04,13,03,34,8.60
2010,04,13,03,35,8.60
2010,04,13,03,36,8.60
2010,04,13,03,37,8.60
2010,04,13,03,38,8.60
2010,04,13,03,39,8.60
2010,04,13,03,40,8.60
2010,04,13,03,41,8.60
2010,04,13,03,42,8.60
2010,04,13,03,43,8.60
2010,04,13,03,44,8.60
2010,04,13,03,45,8.60
2010,04,13,03,46,8.60
2010,04,13,03,47,8.60
2010,04,13,03,48,8.60
2010,04,13,03,49,8.60
2010,04,13,03,50,8.60
2010,04,13,03,51,8.60
2010,04,13,03,52,8.60
2010,04,13,03,53,8.60
2010,04,13,03,54,8.60
2010,04,13,03,55,8.60
2010,04,13,03,56,8.60
2010,04,13,03,57,8.60
2010,04,13,03,58,8.60
2010,04,13,03,59,8.60
2010,04,13,04,00,8.60
2010,04,13,04,01,8.60
2010,04,13,04,02,8.60
2010,04,13,04,03,8.60
2010,04,13,04,04,8.60
2010,04,13,04,05,8.60
2010,04,13,04,06,8.60
2010,04,13,04,07,8.60
2010,04,13,04,08,8.60
2010,04,13,04,09,8.60
2010,04,13,04,10,8.60
2010,04,13,04,11,8.60
2010,04,13,04,12,8.60
2010,04,13,04,13,8.60
2010,04,13,04,14,8.60
2010,04,13,04,15,8.60
2010,04,13,04,16,8.60
2010,04,13,04,17,8.60
2010,04,13,04,18,8.60
2010,04,13,04,19,8.60
2010,04,13,04,20,8.60
2010,04,13,04,21,8.60
2010,04,13,04,22,8.60
2010,04,13,04,23,8.60
2010,04,13,04,24,8.60
2010,04,13,04,25,8.60
2010,04,13,04,26,8.60
2010,04,13,04,27,8.60
2010,04,13,04,28,8.60
2010,04,13,04,29,8.60
2010,04,13,04,30,8.60
2010,04,13,04,31,8.60
2010,04,13,04,32,8.60
2010,04,13,04,33,8.60
2010,04,13,04,34,8.70
2010,04,13,04,35,8.70
2010,04,13,04,36,8.70
2010,04,13,04,37,8.70
2010,04,13,04,38,8.70
2010,04,13,04,39,8.70
2010,04,13,04,40,8.70
2010,04,13,04,41,8.70
2010,04,13,04,42,8.70
2010,04,13,04,43,8.70
2010,04,13,04,44,8.70
2010,04,13,04,45,8.70
2010,04,13,04,46,8.70
2010,04,13,04,47,8.70
2010,04,13,04,48,8.70
2010,04,13,04,49,8.70
2010,04,13,04,50,8.70
2010,04,13,04,51,8.70
2010,04,13,04,52,8.70
2010,04,13,04,53,8.70
2010,04,13,04,54,8.70
2010,04,13,04,55,8.70
2010,04,13,04,56,8.70
2010,04,13,04,57,8.70
2010,04,13,04,58,8.70
2010,04,13,04,59,8.70
2010,04,13,05,00,8.70
2010,04,13,05,01,8.70
2010,04,13,05,02,8.70
2010,04,13,05,03,8.70
2010,04,13,05,04,8.70
2010,04,13,05,05,8.70
2010,04,13,05,06,8.70
2010,04,13,05,07,8.70
2010,04,13,05,08,8.70
2010,04,13,05,09,8.70
2010,04,13,05,10,8.70
2010,04,13,05,11,8.70
2010,04,13,05,12,8.70
2010,04,13,05,13,8.70
2010,04,13,05,14,8.70
2010,04,13,05,15,8.70
2010,04,13,05,16,8.70
2010,04,13,05,17,8.70
2010,04,13,05,18,8.70
2010,04,13,05,19,8.70
2010,04,13,05,20,8.70
2010,04,13,05,21,8.70
2010,04,13,05,22,8.70
2010,04,13,05,23,8.70
2010,04,13,05,24,8.70
2010,04,13,05,25,8.70
2010,04,13,05,26,8.70
2010,04,13,05,27,8.60
2010,04,13,05,28,8.60
2010,04,13,05,29,8.60
2010,04,13,05,30,8.60
2010,04,13,05,31,8.60
2010,04,13,05,32,8.60
2010,04,13,05,33,8.60
2010,04,13,05,34,8.60
2010,04,13,05,35,8.50
2010,04,13,05,36,8.50
2010,04,13,05,37,8.50
2010,04,13,05,38,8.50
2010,04,13,05,39,8.50
2010,04,13,05,40,8.50
2010,04,13,05,41,8.50
2010,04,13,05,42,8.50
2010,04,13,05,43,8.40
2010,04,13,05,44,8.40
2010,04,13,05,45,8.40
2010,04,13,05,46,8.40
2010,04,13,05,47,8.40
2010,04,13,05,48,8.40
2010,04,13,05,49,8.40
2010,04,13,05,50,8.40
2010,04,13,05,51,8.40
2010,04,13,05,52,8.40
2010,04,13,05,53,8.40
2010,04,13,05,54,8.40
2010,04,13,05,55,8.30
2010,04,13,05,56,8.30
2010,04,13,05,57,8.30
2010,04,13,05,58,8.30
2010,04,13,05,59,8.30
2010,04,13,06,00,8.20
2010,04,13,06,01,8.20
2010,04,13,06,02,8.20
2010,04,13,06,03,8.20
2010,04,13,06,04,8.20
2010,04,13,06,05,8.20
2010,04,13,06,06,8.20
2010,04,13,06,07,8.20
2010,04,13,06,08,8.20
2010,04,13,06,09,8.20
2010,04,13,06,10,8.20
2010,04,13,06,11,8.20
2010,04,13,06,12,8.20
2010,04,13,06,13,8.20
2010,04,13,06,14,8.20
2010,04,13,06,15,8.20
2010,04,13,06,16,8.20
2010,04,13,06,17,8.30
2010,04,13,06,18,8.30
2010,04,13,06,19,8.30
2010,04,13,06,20,8.30
2010,04,13,06,21,8.30
2010,04,13,06,22,8.30
2010,04,13,06,23,8.30
2010,04,13,06,24,8.30
2010,04,13,06,25,8.30
2010,04,13,06,26,8.30
2010,04,13,06,27,8.30
2010,04,13,06,28,8.30
2010,04,13,06,29,8.30
2010,04,13,06,30,8.30
2010,04,13,06,31,8.30
2010,04,13,06,32,8.30
2010,04,13,06,33,8.30
2010,04,13,06,34,8.20
2010,04,13,06,35,8.20
2010,04,13,06,36,8.20
2010,04,13,06,37,8.20
2010,04,13,06,38,8.20
2010,04,13,06,39,8.20
2010,04,13,06,40,8.20
2010,04,13,06,41,8.20
2010,04,13,06,42,8.20
2010,04,13,06,43,8.30
2010,04,13,06,44,8.30
2010,04,13,06,45,8.30
2010,04,13,06,46,8.30
2010,04,13,06,47,8.30
2010,04,13,06,48,8.20
2010,04,13,06,49,8.20
2010,04,13,06,50,8.20
2010,04,13,06,51,8.20
2010,04,13,06,52,8.20
2010,04,13,06,53,8.20
2010,04,13,06,54,8.20
2010,04,13,06,55,8.20
2010,04,13,06,56,8.20
2010,04,13,06,57,8.20
2010,04,13,06,58,8.20
2010,04,13,06,59,8.20
2010,04,13,07,00,8.20
2010,04,13,07,01,8.20
2010,04,13,07,02,8.20
2010,04,13,07,03,8.20
2010,04,13,07,04,8.20
2010,04,13,07,05,8.20
2010,04,13,07,06,8.20
2010,04,13,07,07,8.20
2010,04,13,07,08,8.20
2010,04,13,07,09,8.20
2010,04,13,07,10,8.20
2010,04,13,07,11,8.20
2010,04,13,07,12,8.20
2010,04,13,07,13,8.20
2010,04,13,07,14,8.20
2010,04,13,07,15,8.20
2010,04,13,07,16,8.30
2010,04,13,07,17,8.30
2010,04,13,07,18,8.30
2010,04,13,07,19,8.30
2010,04,13,07,20,8.30
2010,04,13,07,21,8.30
2010,04,13,07,22,8.30
2010,04,13,07,23,8.30
2010,04,13,07,24,8.30
2010,04,13,07,25,8.30
2010,04,13,07,26,8.40
2010,04,13,07,27,8.40
2010,04,13,07,28,8.40
2010,04,13,07,29,8.40
2010,04,13,07,30,8.40
2010,04,13,07,31,8.40
2010,04,13,07,32,8.40
2010,04,13,07,33,8.40
2010,04,13,07,34,8.40
2010,04,13,07,35,8.40
2010,04,13,07,36,8.50
2010,04,13,07,37,8.50
2010,04,13,07,38,8.50
2010,04,13,07,39,8.50
2010,04,13,07,40,8.50
2010,04,13,07,41,8.50
2010,04,13,07,42,8.60
2010,04,13,07,43,8.60
2010,04,13,07,44,8.60
2010,04,13,07,45,8.60
2010,04,13,07,46,8.70
2010,04,13,07,47,8.70
2010,04,13,07,48,8.70
2010,04,13,07,49,8.70
2010,04,13,07,50,8.70
2010,04,13,07,51,8.70
2010,04,13,07,52,8.70
2010,04,13,07,53,8.70
2010,04,13,07,54,8.70
2010,04,13,07,55,8.70
2010,04,13,07,56,8.70
2010,04,13,07,57,8.80
2010,04,13,07,58,8.80
2010,04,13,07,59,8.80
2010,04,13,08,00,8.90
2010,04,13,08,01,8.90
2010,04,13,08,02,8.90
2010,04,13,08,03,8.90
2010,04,13,08,04,8.90
2010,04,13,08,05,8.90
2010,04,13,08,06,8.90
2010,04,13,08,07,9.00
2010,04,13,08,08,9.00
2010,04,13,08,09,9.00
2010,04,13,08,10,9.00
2010,04,13,08,11,9.00
2010,04,13,08,12,9.00
2010,04,13,08,13,9.10
2010,04,13,08,14,9.10
2010,04,13,08,15,9.10
2010,04,13,08,16,9.20
2010,04,13,08,17,9.20
2010,04,13,08,18,9.20
2010,04,13,08,19,9.20
2010,04,13,08,20,9.20
2010,04,13,08,21,9.20
2010,04,13,08,22,9.20
2010,04,13,08,23,9.20
2010,04,13,08,24,9.30
2010,04,13,08,25,9.30
2010,04,13,08,26,9.40
2010,04,13,08,27,9.40
2010,04,13,08,28,9.50
2010,04,13,08,29,9.60
2010,04,13,08,30,9.60
2010,04,13,08,31,9.70
2010,04,13,08,32,9.70
2010,04,13,08,33,9.70
2010,04,13,08,34,9.70
2010,04,13,08,35,9.80
2010,04,13,08,36,9.80
2010,04,13,08,37,9.80
2010,04,13,08,38,9.90
2010,04,13,08,39,9.90
2010,04,13,08,40,9.90
2010,04,13,08,41,9.90
2010,04,13,08,42,10.10
2010,04,13,08,43,10.00
2010,04,13,08,44,9.90
2010,04,13,08,45,9.90
2010,04,13,08,46,9.90
2010,04,13,08,47,10.00
2010,04,13,08,48,10.10
2010,04,13,08,49,10.10
2010,04,13,08,50,10.10
2010,04,13,08,51,10.10
2010,04,13,08,52,10.10
2010,04,13,08,53,10.10
2010,04,13,08,54,10.20
2010,04,13,08,55,10.20
2010,04,13,08,56,10.10
2010,04,13,08,57,10.20
2010,04,13,08,58,10.20
2010,04,13,08,59,10.20
2010,04,13,09,00,10.20
2010,04,13,09,01,10.20
2010,04,13,09,02,10.20
2010,04,13,09,03,10.30
2010,04,13,09,04,10.30
2010,04,13,09,05,10.30
2010,04,13,09,06,10.30
2010,04,13,09,07,10.30
2010,04,13,09,08,10.40
2010,04,13,09,09,10.40
2010,04,13,09,10,10.40
2010,04,13,09,11,10.40
2010,04,13,09,12,10.40
2010,04,13,09,13,10.50
2010,04,13,09,14,10.60
2010,04,13,09,15,10.60
2010,04,13,09,16,10.60
2010,04,13,09,17,10.60
2010,04,13,09,18,10.60
2010,04,13,09,19,10.60
2010,04,13,09,20,10.60
2010,04,13,09,21,10.60
2010,04,13,09,22,10.60
2010,04,13,09,23,10.60
2010,04,13,09,24,10.60
2010,04,13,09,25,10.60
2010,04,13,09,26,10.60
2010,04,13,09,27,10.60
2010,04,13,09,28,10.50
2010,04,13,09,29,10.40
2010,04,13,09,30,10.40
2010,04,13,09,31,10.40
2010,04,13,09,32,10.40
2010,04,13,09,33,10.30
2010,04,13,09,34,10.30
2010,04,13,09,35,10.30
2010,04,13,09,36,10.30
2010,04,13,09,37,10.30
2010,04,13,09,38,10.30
2010,04,13,09,39,10.20
2010,04,13,09,40,10.20
2010,04,13,09,41,10.20
2010,04,13,09,42,10.20
2010,04,13,09,43,10.20
2010,04,13,09,44,10.20
2010,04,13,09,45,10.10
2010,04,13,09,46,10.20
2010,04,13,09,47,10.20
2010,04,13,09,48,10.20
2010,04,13,09,49,10.20
2010,04,13,09,50,10.20
2010,04,13,09,51,10.30
2010,04,13,09,52,10.20
2010,04,13,09,53,10.20
2010,04,13,09,54,10.20
2010,04,13,09,55,10.20
2010,04,13,09,56,10.20
2010,04,13,09,57,10.20
2010,04,13,09,58,10.30
2010,04,13,09,59,10.30
2010,04,13,10,00,10.30
2010,04,13,10,01,10.30
2010,04,13,10,02,10.30
2010,04,13,10,03,10.30
2010,04,13,10,04,10.30
2010,04,13,10,05,10.30
2010,04,13,10,06,10.30
2010,04,13,10,07,10.30
2010,04,13,10,08,10.40
2010,04,13,10,09,10.40
2010,04,13,10,10,10.50
2010,04,13,10,11,10.60
2010,04,13,10,12,10.60
2010,04,13,10,13,10.60
2010,04,13,10,14,10.60
2010,04,13,10,15,10.60
2010,04,13,10,16,10.60
2010,04,13,10,17,10.60
2010,04,13,10,18,10.60
2010,04,13,10,19,10.70
2010,04,13,10,20,10.70
2010,04,13,10,21,10.80
2010,04,13,10,22,10.80
2010,04,13,10,23,10.90
2010,04,13,10,24,10.90
2010,04,13,10,25,11.10
2010,04,13,10,26,11.10
2010,04,13,10,27,11.10
2010,04,13,10,28,11.10
2010,04,13,10,29,11.10
2010,04,13,10,30,11.10
2010,04,13,10,31,11.10
2010,04,13,10,32,11.20
2010,04,13,10,33,11.20
2010,04,13,10,34,11.20
2010,04,13,10,35,11.30
2010,04,13,10,36,11.30
2010,04,13,10,37,11.30
2010,04,13,10,38,11.30
2010,04,13,10,39,11.40
2010,04,13,10,40,11.40
2010,04,13,10,41,11.40
2010,04,13,10,42,11.40
2010,04,13,10,43,11.50
2010,04,13,10,44,11.60
2010,04,13,10,45,11.60
2010,04,13,10,46,11.60
2010,04,13,10,47,11.60
2010,04,13,10,48,11.60
2010,04,13,10,49,11.70
2010,04,13,10,50,11.70
2010,04,13,10,51,11.70
2010,04,13,10,52,11.70
2010,04,13,10,53,11.70
2010,04,13,10,54,11.70
2010,04,13,10,55,11.70
2010,04,13,10,56,11.80
2010,04,13,10,57,11.80
2010,04,13,10,58,11.80
2010,04,13,10,59,11.80
2010,04,13,11,00,11.80
2010,04,13,11,01,11.80
2010,04,13,11,02,11.80
2010,04,13,11,03,11.80
2010,04,13,11,04,11.80
2010,04,13,11,05,11.80
2010,04,13,11,06,11.80
2010,04,13,11,07,12.00
2010,04,13,11,08,12.00
2010,04,13,11,09,12.10
2010,04,13,11,10,12.20
2010,04,13,11,11,12.30
2010,04,13,11,12,12.40
2010,04,13,11,13,12.50
2010,04,13,11,14,12.50
2010,04,13,11,15,12.50
2010,04,13,11,16,12.60
2010,04,13,11,17,12.50
2010,04,13,11,18,12.60
2010,04,13,11,19,12.60
2010,04,13,11,20,12.70
2010,04,13,11,21,12.80
2010,04,13,11,22,12.80
2010,04,13,11,23,12.70
2010,04,13,11,24,12.70
2010,04,13,11,25,12.70
2010,04,13,11,26,12.70
2010,04,13,11,27,12.70
2010,04,13,11,28,12.80
2010,04,13,11,29,12.80
2010,04,13,11,30,12.80
2010,04,13,11,31,12.80
2010,04,13,11,32,12.80
2010,04,13,11,33,12.90
2010,04,13,11,34,13.00
2010,04,13,11,35,13.00
2010,04,13,11,36,13.00
2010,04,13,11,37,13.00
2010,04,13,11,38,13.00
2010,04,13,11,39,12.90
2010,04,13,11,40,12.90
2010,04,13,11,41,12.80
2010,04,13,11,42,12.80
2010,04,13,11,43,12.80
2010,04,13,11,44,12.80
2010,04,13,11,45,12.70
2010,04,13,11,46,12.60
2010,04,13,11,47,12.60
2010,04,13,11,48,12.60
2010,04,13,11,49,12.70
2010,04,13,11,50,12.80
2010,04,13,11,51,12.80
2010,04,13,11,52,12.80
2010,04,13,11,53,12.90
2010,04,13,11,54,13.00
2010,04,13,11,55,13.00
2010,04,13,11,56,13.00
2010,04,13,11,57,13.10
2010,04,13,11,58,13.00
2010,04,13,11,59,12.70
2010,04,13,12,00,12.60
2010,04,13,12,01,12.60
2010,04,13,12,02,12.50
2010,04,13,12,03,12.50
2010,04,13,12,04,12.50
2010,04,13,12,05,12.50
2010,04,13,12,06,12.50
2010,04,13,12,07,12.50
2010,04,13,12,08,12.40
2010,04,13,12,09,12.30
2010,04,13,12,10,12.20
2010,04,13,12,11,12.20
2010,04,13,12,12,12.10
2010,04,13,12,13,12.10
2010,04,13,12,14,12.10
2010,04,13,12,15,12.10
2010,04,13,12,16,12.20
2010,04,13,12,17,12.20
2010,04,13,12,18,12.20
2010,04,13,12,19,12.20
2010,04,13,12,20,12.20
2010,04,13,12,21,12.20
2010,04,13,12,22,12.20
2010,04,13,12,23,12.20
2010,04,13,12,24,12.20
2010,04,13,12,25,12.20
2010,04,13,12,26,12.20
2010,04,13,12,27,12.10
2010,04,13,12,28,12.10
2010,04,13,12,29,12.20
2010,04,13,12,30,12.20
2010,04,13,12,31,12.20
2010,04,13,12,32,12.10
2010,04,13,12,33,12.10
2010,04,13,12,34,12.10
2010,04,13,12,35,12.20
2010,04,13,12,36,12.20
2010,04,13,12,37,12.30
2010,04,13,12,38,12.40
2010,04,13,12,39,12.40
2010,04,13,12,40,12.40
2010,04,13,12,41,12.40
2010,04,13,12,42,12.40
2010,04,13,12,43,12.40
2010,04,13,12,44,12.40
2010,04,13,12,45,12.40
2010,04,13,12,46,12.40
2010,04,13,12,47,12.40
2010,04,13,12,48,12.30
2010,04,13,12,49,12.30
2010,04,13,12,50,12.30
2010,04,13,12,51,12.30
2010,04,13,12,52,12.30
2010,04,13,12,53,12.30
2010,04,13,12,54,12.30
2010,04,13,12,55,12.30
2010,04,13,12,56,12.40
2010,04,13,12,57,12.40
2010,04,13,12,58,12.40
2010,04,13,12,59,12.40
2010,04,13,13,00,12.30
2010,04,13,13,01,12.30
2010,04,13,13,02,12.20
2010,04,13,13,03,12.20
2010,04,13,13,04,12.20
2010,04,13,13,05,12.10
2010,04,13,13,06,12.10
2010,04,13,13,07,12.10
2010,04,13,13,08,12.20
2010,04,13,13,09,12.20
2010,04,13,13,10,12.20
2010,04,13,13,11,12.20
2010,04,13,13,12,12.20
2010,04,13,13,13,12.20
2010,04,13,13,14,12.20
2010,04,13,13,15,12.20
2010,04,13,13,16,12.30
2010,04,13,13,17,12.30
2010,04,13,13,18,12.30
2010,04,13,13,19,12.30
2010,04,13,13,20,12.30
2010,04,13,13,21,12.30
2010,04,13,13,22,12.30
2010,04,13,13,23,12.30
2010,04,13,13,24,12.30
2010,04,13,13,25,12.20
2010,04,13,13,26,12.20
2010,04,13,13,27,12.10
2010,04,13,13,28,12.10
2010,04,13,13,29,12.10
2010,04,13,13,30,12.10
2010,04,13,13,31,12.10
2010,04,13,13,32,12.20
2010,04,13,13,33,12.20
2010,04,13,13,34,12.20
2010,04,13,13,35,12.20
2010,04,13,13,36,12.20
2010,04,13,13,37,12.20
2010,04,13,13,38,12.20
2010,04,13,13,39,12.20
2010,04,13,13,40,12.30
2010,04,13,13,41,12.30
2010,04,13,13,42,12.30
2010,04,13,13,43,12.40
2010,04,13,13,44,12.50
2010,04,13,13,45,12.50
2010,04,13,13,46,12.50
2010,04,13,13,47,12.50
2010,04,13,13,48,12.60
2010,04,13,13,49,12.60
2010,04,13,13,50,12.80
2010,04,13,13,51,12.90
2010,04,13,13,52,13.00
2010,04,13,13,53,13.10
2010,04,13,13,54,13.10
2010,04,13,13,55,13.20
2010,04,13,13,56,13.20
2010,04,13,13,57,13.20
2010,04,13,13,58,13.20
2010,04,13,13,59,13.20
2010,04,13,14,00,13.10
2010,04,13,14,01,13.10
2010,04,13,14,02,13.10
2010,04,13,14,03,13.00
2010,04,13,14,04,12.90
2010,04,13,14,05,12.90
2010,04,13,14,06,12.80
2010,04,13,14,07,12.80
2010,04,13,14,08,12.80
2010,04,13,14,09,12.90
2010,04,13,14,10,13.00
2010,04,13,14,11,13.00
2010,04,13,14,12,13.10
2010,04,13,14,13,13.10
2010,04,13,14,14,13.10
2010,04,13,14,15,13.00
2010,04,13,14,16,13.10
2010,04,13,14,17,13.10
2010,04,13,14,18,13.10
2010,04,13,14,19,13.10
2010,04,13,14,20,13.10
2010,04,13,14,21,13.10
2010,04,13,14,22,13.10
2010,04,13,14,23,13.10
2010,04,13,14,24,13.00
2010,04,13,14,25,13.00
2010,04,13,14,26,12.90
2010,04,13,14,27,13.00
2010,04,13,14,28,13.00
2010,04,13,14,29,13.10
2010,04,13,14,30,13.10
2010,04,13,14,31,13.10
2010,04,13,14,32,13.10
2010,04,13,14,33,13.10
2010,04,13,14,34,13.00
2010,04,13,14,35,13.00
2010,04,13,14,36,13.00
2010,04,13,14,37,13.10
2010,04,13,14,38,13.10
2010,04,13,14,39,13.10
2010,04,13,14,40,13.20
2010,04,13,14,41,13.20
2010,04,13,14,42,13.20
2010,04,13,14,43,13.20
2010,04,13,14,44,13.10
2010,04,13,14,45,13.10
2010,04,13,14,46,13.10
2010,04,13,14,47,13.10
2010,04,13,14,48,13.00
2010,04,13,14,49,13.00
2010,04,13,14,50,13.00
2010,04,13,14,51,13.00
2010,04,13,14,52,13.10
2010,04,13,14,53,13.20
2010,04,13,14,54,13.20
2010,04,13,14,55,13.20
2010,04,13,14,56,13.20
2010,04,13,14,57,13.30
2010,04,13,14,58,13.30
2010,04,13,14,59,13.30
2010,04,13,15,00,13.40
2010,04,13,15,01,13.40
2010,04,13,15,02,13.50
2010,04,13,15,03,13.50
2010,04,13,15,04,13.70
2010,04,13,15,05,13.70
2010,04,13,15,06,13.60
2010,04,13,15,07,13.70
2010,04,13,15,08,13.80
2010,04,13,15,09,13.80
2010,04,13,15,10,13.70
2010,04,13,15,11,13.60
2010,04,13,15,12,13.50
2010,04,13,15,13,13.40
2010,04,13,15,14,13.30
2010,04,13,15,15,13.30
2010,04,13,15,16,13.30
2010,04,13,15,17,13.30
2010,04,13,15,18,13.20
2010,04,13,15,19,13.20
2010,04,13,15,20,13.30
2010,04,13,15,21,13.30
2010,04,13,15,22,13.30
2010,04,13,15,23,13.20
2010,04,13,15,24,13.00
2010,04,13,15,25,12.90
2010,04,13,15,26,13.00
2010,04,13,15,27,13.10
2010,04,13,15,28,13.10
2010,04,13,15,29,13.10
2010,04,13,15,30,13.10
2010,04,13,15,31,13.10
2010,04,13,15,32,13.10
2010,04,13,15,33,13.20
2010,04,13,15,34,13.30
2010,04,13,15,35,13.30
2010,04,13,15,36,13.30
2010,04,13,15,37,13.30
2010,04,13,15,38,13.40
2010,04,13,15,39,13.50
2010,04,13,15,40,13.60
2010,04,13,15,41,13.60
2010,04,13,15,42,13.60
2010,04,13,15,43,13.60
2010,04,13,15,44,13.60
2010,04,13,15,45,13.60
2010,04,13,15,46,13.60
2010,04,13,15,47,13.50
2010,04,13,15,48,13.40
2010,04,13,15,49,13.40
2010,04,13,15,50,13.40
2010,04,13,15,51,13.30
2010,04,13,15,52,13.30
2010,04,13,15,53,13.30
2010,04,13,15,54,13.30
2010,04,13,15,55,13.20
2010,04,13,15,56,13.20
2010,04,13,15,57,13.20
2010,04,13,15,58,13.20
2010,04,13,15,59,13.20
2010,04,13,16,00,13.20
2010,04,13,16,01,13.10
2010,04,13,16,02,13.00
2010,04,13,16,03,13.00
2010,04,13,16,04,12.80
2010,04,13,16,05,12.80
2010,04,13,16,06,12.80
2010,04,13,16,07,12.90
2010,04,13,16,08,12.90
2010,04,13,16,09,13.00
2010,04,13,16,10,13.10
2010,04,13,16,11,13.10
2010,04,13,16,12,13.00
2010,04,13,16,13,13.10
2010,04,13,16,14,13.10
2010,04,13,16,15,13.20
2010,04,13,16,16,13.30
2010,04,13,16,17,13.30
2010,04,13,16,18,13.30
2010,04,13,16,19,13.20
2010,04,13,16,20,13.20
2010,04,13,16,21,13.10
2010,04,13,16,22,13.00
2010,04,13,16,23,13.00
2010,04,13,16,24,13.10
2010,04,13,16,25,13.10
2010,04,13,16,26,13.10
2010,04,13,16,27,13.00
2010,04,13,16,28,12.90
2010,04,13,16,29,12.80
2010,04,13,16,30,12.80
2010,04,13,16,31,12.70
2010,04,13,16,32,12.70
2010,04,13,16,33,12.80
2010,04,13,16,34,12.80
2010,04,13,16,35,12.80
2010,04,13,16,36,12.80
2010,04,13,16,37,12.90
2010,04,13,16,38,13.10
2010,04,13,16,39,13.10
2010,04,13,16,40,13.00
2010,04,13,16,41,12.90
2010,04,13,16,42,12.80
2010,04,13,16,43,12.80
2010,04,13,16,44,12.80
2010,04,13,16,45,12.80
2010,04,13,16,46,12.80
2010,04,13,16,47,12.80
2010,04,13,16,48,12.80
2010,04,13,16,49,12.80
2010,04,13,16,50,12.70
2010,04,13,16,51,12.70
2010,04,13,16,52,12.70
2010,04,13,16,53,12.70
2010,04,13,16,54,12.70
2010,04,13,16,55,12.60
2010,04,13,16,56,12.50
2010,04,13,16,57,12.50
2010,04,13,16,58,12.60
2010,04,13,16,59,12.60
2010,04,13,17,00,12.60
2010,04,13,17,01,12.60
2010,04,13,17,02,12.50
2010,04,13,17,03,12.50
2010,04,13,17,04,12.60
2010,04,13,17,05,12.60
2010,04,13,17,06,12.60
2010,04,13,17,07,12.60
2010,04,13,17,08,12.60
2010,04,13,17,09,12.60
2010,04,13,17,10,12.60
2010,04,13,17,11,12.60
2010,04,13,17,12,12.60
2010,04,13,17,13,12.70
2010,04,13,17,14,12.70
2010,04,13,17,15,12.70
2010,04,13,17,16,12.70
2010,04,13,17,17,12.80
2010,04,13,17,18,12.80
2010,04,13,17,19,12.80
2010,04,13,17,20,12.80
2010,04,13,17,21,12.80
2010,04,13,17,22,12.80
2010,04,13,17,23,12.90
2010,04,13,17,24,12.90
2010,04,13,17,25,12.90
2010,04,13,17,26,12.90
2010,04,13,17,27,12.80
2010,04,13,17,28,12.80
2010,04,13,17,29,12.80
2010,04,13,17,30,12.70
2010,04,13,17,31,12.60
2010,04,13,17,32,12.70
2010,04,13,17,33,12.70
2010,04,13,17,34,12.70
2010,04,13,17,35,12.70
2010,04,13,17,36,12.70
2010,04,13,17,37,12.60
2010,04,13,17,38,12.50
2010,04,13,17,39,12.50
2010,04,13,17,40,12.40
2010,04,13,17,41,12.40
2010,04,13,17,42,12.30